Waarnemingen

Advertentie
Mijn weer
S. Maria Di Leuca, Italië (16360): temperatuur & dauwpunt: 17.05.2018 20:00:00 - 23.05.2018 20:00:00 (CEST)S. Maria Di Leuca, Italië (16360): windsnelheid: 17.05.2018 20:00:00 - 23.05.2018 20:00:00 (CEST)S. Maria Di Leuca, Italië (16360): windrichting: 17.05.2018 20:00:00 - 23.05.2018 20:00:00 (CEST)S. Maria Di Leuca, Italië (16360): luchtdruk: 17.05.2018 20:00:00 - 23.05.2018 20:00:00 (CEST)S. Maria Di Leuca, Italië (16360): zicht: 17.05.2018 20:00:00 - 23.05.2018 20:00:00 (CEST)S. Maria Di Leuca, Italië (16360): Zonneschijnduur: 17.05.2018 20:00:00 - 23.05.2018 20:00:00 (CEST)
Datum & Tijd tt [°C] td [°C] ff [km/u] ff [kn] dd ppp [hPa] vv [km] sd [min]
23.05.2018 20:00:00 18,2 14,1 11 6 N 1012,8 12 0
23.05.2018 19:00:00 18,2 14,1 9 5 N 1012,6 12 0
23.05.2018 18:00:00 18,0 14,7 16 9 NNO 1012,1 12 0
23.05.2018 17:00:00 18,2 14,3 15 8 NW 1011,2 10 0
23.05.2018 16:00:00 17,6 13,3 21 11 NNW 1012,5 10 0
23.05.2018 15:00:00 19,6 16,6 15 8 N 1012,1 6 0
23.05.2018 14:00:00 21,0 17,8 26 14 NO 1012,4 10 0
23.05.2018 13:00:00 22,0 19,4 15 8 ONO 1012,9 12 0
23.05.2018 12:00:00 23,0 18,5 13 7 ONO 1013,0 10 42
23.05.2018 11:00:00 20,6 17,8 9 5 ONO 1013,4 10 0
23.05.2018 10:00:00 21,0 18,4 11 6 WZW 1013,4 10 0
23.05.2018 09:00:00 20,8 17,8 5 3 WNW 1013,2 10 0
23.05.2018 08:00:00 20,6 16,6 5 3 O 1013,0 10 6
23.05.2018 07:00:00 20,0 15,9 8 4 ZO 1012,8 10 0
23.05.2018 06:00:00 20,0 16,0 9 5 OZO 1013,4 10 0
23.05.2018 05:00:00 20,0 17,0 9 5 OZO 1013,6 10 -
23.05.2018 04:00:00 20,0 16,4 9 5 OZO 1013,6 10 -
23.05.2018 03:00:00 20,0 16,8 11 6 OZO 1013,6 10 -
23.05.2018 02:00:00 20,0 17,4 9 5 ZZO 1014,2 10 -
23.05.2018 01:00:00 20,0 17,0 9 5 OZO 1014,2 10 -
23.05.2018 00:00:00 20,0 16,8 11 6 OZO 1014,2 10 -
22.05.2018 23:00:00 20,0 16,8 8 4 OZO 1014,1 10 -
22.05.2018 22:00:00 20,2 15,6 5 3 O 1014,1 10 -
22.05.2018 21:00:00 20,8 18,4 4 2 ZZO 1014,0 10 -
22.05.2018 20:00:00 21,0 18,9 9 5 OZO 1013,9 10 0
22.05.2018 19:00:00 21,4 18,8 9 5 ZO 1013,7 10 60
22.05.2018 18:00:00 22,0 16,3 8 4 ZZO 1013,9 10 60
22.05.2018 17:00:00 22,4 15,3 8 4 ZO 1013,9 10 60
22.05.2018 16:00:00 22,6 16,6 9 5 OZO 1014,1 10 60
22.05.2018 15:00:00 22,4 16,0 11 6 OZO 1014,3 10 60
22.05.2018 14:00:00 22,2 15,3 9 5 ZZO 1014,8 10 60
22.05.2018 13:00:00 22,0 16,3 9 5 Z 1014,9 10 60
22.05.2018 12:00:00 22,0 16,9 9 5 Z 1014,9 10 60
22.05.2018 11:00:00 21,6 18,4 5 3 ZZW 1014,7 10 60
22.05.2018 10:00:00 21,6 18,0 9 5 ZW 1014,2 10 60
22.05.2018 09:00:00 21,4 13,3 4 2 W 1013,1 10 60
22.05.2018 08:00:00 20,0 14,6 8 4 ONO 1013,1 10 60
22.05.2018 07:00:00 19,2 16,6 5 3 N 1012,8 10 18
22.05.2018 06:00:00 19,0 15,9 8 4 N 1012,5 12 0
22.05.2018 05:00:00 19,0 15,9 8 4 NNO 1012,0 12 -
22.05.2018 04:00:00 19,0 16,0 5 3 NNO 1012,0 12 -
22.05.2018 03:00:00 19,2 17,0 9 5 NNO 1012,0 12 -
22.05.2018 02:00:00 19,4 17,9 11 6 NNO 1012,0 12 -
22.05.2018 01:00:00 19,8 18,1 9 5 NNO 1012,0 12 -
22.05.2018 00:00:00 20,0 18,3 9 5 N 1012,0 12 -
21.05.2018 23:00:00 20,2 18,2 8 4 NNO 1011,8 10 -
21.05.2018 22:00:00 20,6 15,2 8 4 WNW 1011,4 12 -
21.05.2018 21:00:00 20,8 14,5 5 3 NNW 1011,0 12 0
21.05.2018 20:00:00 20,8 14,9 8 4 NNW 1011,0 12 0
21.05.2018 19:00:00 20,8 15,8 8 4 WNW 1011,1 10 30
21.05.2018 18:00:00 21,0 15,3 11 6 W 1011,1 10 60
21.05.2018 17:00:00 21,0 16,8 13 7 W 1011,2 10 60
21.05.2018 16:00:00 21,4 17,2 9 5 WZW 1011,4 10 60
21.05.2018 15:00:00 21,6 17,8 9 5 ZW 1011,7 10 60
21.05.2018 14:00:00 21,4 18,4 8 4 ZW 1012,0 10 60
21.05.2018 13:00:00 21,0 18,8 9 5 ZZW 1012,1 10 60
21.05.2018 12:00:00 21,0 19,3 15 8 WZW 1012,1 10 60
21.05.2018 11:00:00 21,2 19,1 8 4 W 1012,1 10 60
21.05.2018 10:00:00 20,6 18,4 8 4 Z 1012,1 10 60
21.05.2018 09:00:00 21,0 17,8 5 3 ZZO 1012,1 10 60
21.05.2018 08:00:00 19,8 17,2 5 3 W 1011,9 10 60
21.05.2018 07:00:00 18,4 15,3 8 4 N 1011,5 10 0
21.05.2018 06:00:00 18,2 14,9 13 7 N 1011,4 10 0
21.05.2018 05:00:00 18,0 15,6 15 8 NNO 1011,3 10 -
21.05.2018 04:00:00 18,0 15,4 15 8 NNO 1011,4 10 -
21.05.2018 03:00:00 18,0 16,0 11 6 NNO 1012,2 10 -
21.05.2018 02:00:00 18,2 16,2 15 8 NNO 1012,3 10 -
21.05.2018 01:00:00 19,0 16,4 11 6 N 1012,3 10 -
21.05.2018 00:00:00 19,2 16,6 11 6 NNO 1012,2 10 -
20.05.2018 23:00:00 20,0 17,4 9 5 NO 1012,3 10 -
20.05.2018 22:00:00 20,0 17,8 8 4 O 1011,9 10 -
20.05.2018 21:00:00 20,0 16,8 11 6 NO 1011,1 15 0
20.05.2018 20:00:00 20,0 17,6 5 3 ONO 1011,1 15 0
20.05.2018 19:00:00 20,0 15,9 4 2 ZO 1011,1 15 6
20.05.2018 18:00:00 20,6 18,7 8 4 WZW 1011,0 15 12
20.05.2018 17:00:00 21,6 14,5 9 5 W 1011,0 20 60
20.05.2018 16:00:00 21,8 16,5 9 5 WZW 1011,2 20 60
20.05.2018 15:00:00 22,0 14,9 13 7 WZW 1011,2 20 60
20.05.2018 14:00:00 21,8 14,9 13 7 ONO 1011,7 20 60
20.05.2018 13:00:00 21,6 16,8 18 10 ONO 1011,8 20 60
20.05.2018 12:00:00 21,2 17,0 21 11 ONO 1012,0 20 60
20.05.2018 11:00:00 21,0 16,4 21 11 NO 1012,5 20 60
20.05.2018 10:00:00 20,2 14,5 16 9 NNO 1012,5 20 60
20.05.2018 09:00:00 18,4 14,9 18 10 NNO 1012,6 20 60
20.05.2018 08:00:00 18,2 15,8 24 13 N 1012,7 20 54
20.05.2018 07:00:00 17,2 14,1 24 13 N 1012,7 20 48
20.05.2018 06:00:00 16,4 12,5 22 12 N 1012,8 15 0
20.05.2018 05:00:00 16,2 12,2 22 12 N 1012,8 15 -
20.05.2018 04:00:00 16,6 12,7 21 11 N 1012,5 15 -
20.05.2018 03:00:00 17,0 13,1 21 11 N 1013,0 15 -
20.05.2018 02:00:00 17,4 13,9 18 10 N 1012,9 15 -
20.05.2018 01:00:00 17,6 14,5 18 10 N 1012,8 15 -
20.05.2018 00:00:00 17,6 15,2 11 6 NNW 1012,8 15 -
19.05.2018 23:00:00 18,0 16,2 18 10 NNO 1012,7 10 -
19.05.2018 22:00:00 18,6 15,7 16 9 NNO 1012,4 15 -
19.05.2018 21:00:00 19,6 12,9 15 8 NNO 1012,2 15 -
19.05.2018 20:00:00 21,0 13,0 9 5 NNO 1011,6 20 60
19.05.2018 19:00:00 21,4 10,5 16 9 N 1011,1 20 60
19.05.2018 18:00:00 21,8 10,0 18 10 N 1011,5 20 60
19.05.2018 17:00:00 22,0 10,2 15 8 N 1011,8 20 60
19.05.2018 16:00:00 22,2 14,1 13 7 NO 1012,0 20 60
19.05.2018 15:00:00 22,0 11,7 15 8 NNO 1012,0 20 60
19.05.2018 14:00:00 22,0 11,7 16 9 NNO 1012,0 20 60
19.05.2018 13:00:00 21,4 11,4 18 10 N 1012,1 20 60
19.05.2018 12:00:00 21,0 10,8 15 8 N 1012,1 20 60
19.05.2018 11:00:00 20,2 12,2 22 12 N 1011,6 20 60
19.05.2018 10:00:00 19,8 13,5 22 12 NNO 1011,6 20 60
19.05.2018 09:00:00 19,0 14,7 26 14 N 1011,7 20 54
19.05.2018 08:00:00 18,6 15,3 28 15 N 1011,3 20 0
19.05.2018 07:00:00 17,0 13,5 18 10 N 1010,9 20 18
19.05.2018 06:00:00 17,2 14,1 18 10 N 1010,6 12 0
19.05.2018 05:00:00 17,2 14,3 26 14 N 1010,2 12 -
19.05.2018 04:00:00 17,2 14,7 24 13 N 1010,5 12 -
19.05.2018 03:00:00 17,4 14,7 26 14 NNO 1010,5 12 -
19.05.2018 02:00:00 17,4 15,6 28 15 NNO 1010,9 12 -
19.05.2018 01:00:00 17,6 16,0 29 16 NNO 1011,0 12 -
19.05.2018 00:00:00 17,8 16,3 24 13 NNO 1011,3 12 -
18.05.2018 23:00:00 18,4 15,8 22 12 NNO 1011,3 10 -
18.05.2018 22:00:00 18,2 16,4 26 14 NNO 1011,2 12 -
18.05.2018 21:00:00 18,2 14,1 26 14 NO 1011,2 12 0
18.05.2018 20:00:00 18,2 14,1 26 14 NO 1011,2 15 18
18.05.2018 19:00:00 18,2 14,1 34 18 NNO 1011,5 18 12
18.05.2018 18:00:00 18,0 15,2 31 17 NNO 1012,6 12 0
18.05.2018 17:00:00 18,0 14,9 24 13 NNO 1013,8 12 0
18.05.2018 16:00:00 17,8 14,9 22 12 NO 1014,3 12 0
18.05.2018 15:00:00 19,0 14,7 21 11 NNO 1014,5 12 0
18.05.2018 14:00:00 20,0 13,7 28 15 NO 1014,2 15 0
18.05.2018 13:00:00 20,2 13,9 21 11 NNO 1014,7 15 0
18.05.2018 12:00:00 20,4 14,3 15 8 NNO 1014,7 15 0
18.05.2018 11:00:00 20,6 13,6 16 9 N 1014,4 10 0
18.05.2018 10:00:00 20,4 12,9 8 4 N 1014,4 15 12
18.05.2018 09:00:00 19,6 14,4 11 6 NNO 1014,1 15 6
18.05.2018 08:00:00 18,8 13,2 13 7 NO 1014,0 15 0
18.05.2018 07:00:00 17,8 14,9 16 9 NO 1013,7 15 0
18.05.2018 06:00:00 16,8 14,6 16 9 NO 1014,4 15 0
18.05.2018 05:00:00 16,8 14,4 18 10 NO 1014,8 10 -
18.05.2018 04:00:00 17,0 14,7 9 5 N 1014,8 10 -
18.05.2018 03:00:00 17,2 15,0 9 5 NNO 1014,8 10 -
18.05.2018 02:00:00 18,0 13,7 9 5 N 1014,7 10 -
18.05.2018 01:00:00 17,2 15,5 9 5 NNO 1014,8 10 -
18.05.2018 00:00:00 17,4 15,6 8 4 NNO 1014,8 10 -
17.05.2018 23:00:00 17,8 15,6 4 2 N 1014,9 10 -
17.05.2018 22:00:00 18,0 15,6 4 2 ZZO 1014,5 10 -
17.05.2018 21:00:00 18,2 15,8 2 1 ZZW 1014,5 10 -
17.05.2018 20:00:00 18,2 15,6 4 2 Z 1014,6 15 0

tt = temperatuur
td = dauwpunt
ff = windsnelheid
dd = windrichting
ppp = luchtdruk
vv = zicht
sd = Zonneschijnduur

Weerstations in de omgeving